Linden, WI

1:52 AM CST on February 12, 2016 (GMT -0600)
Iowa County

Weather History for KMRJ - December, 2013

Change the Weather History Date:

Monday, December 2, 2013

  Actual Average (KLNR) Record (KLNR)
Temperature  
Mean Temperature 34 °F -  
Max Temperature 39 °F 38 °F 62 °F (1998)
Min Temperature 30 °F 23 °F 6 °F (2005)
Degree Days  
Heating Degree Days 30    
Moisture  
Dew Point 30 °F    
Average Humidity 87    
Maximum Humidity 93    
Minimum Humidity 75    
Precipitation  
Precipitation 0.04 in - - ()
Sea Level Pressure  
Sea Level Pressure 29.79 in    
Wind  
Wind Speed 7 mph (ESE)    
Max Wind Speed 14 mph    
Max Gust Speed 20 mph    
Visibility 5 miles    
Events Rain , Snow    
Averages and records for this station are not official NWS values.
T = Trace of Precipitation, MM = Missing Value Source: NWS Daily Summary

Daily Weather History Graph

Daily Weather History Graph

Search for Another Location

Airport or City:

Trip Planner

Search our weather history database for the weather conditions in past years. The results will help you decide how hot, cold, wet, or windy it might be!

Date:

Astronomy

Dec. 02, 2013 Rise Set
Actual Time 7:13 AM CST 4:27 PM CST
Civil Twilight 6:41 AM CST 4:59 PM CST
Nautical Twilight 6:06 AM CST 5:34 PM CST
Astronomical Twilight 5:32 AM CST 6:08 PM CST
Moon 6:37 AM CST (12/2) 4:31 PM CST (12/2)
Length of Visible Light 10h 17m
Length of Day
9h 13m
Waning Crescent, 0% of the Moon is Illuminated
Dec 2
Waning Crescent
Dec 2
New
Dec 9
First Quarter
Dec 17
Full
Dec 25
Last Quarter

Hourly Weather History & Observations

Time (CST) Temp. Windchill Dew Point Humidity Pressure Visibility Wind Dir Wind Speed Gust Speed Precip Events Conditions
12:15 AM 32.0 °F - 26.6 °F 80% 29.94 in 10.0 mi Calm Calm - N/A   Clear
12:35 AM 32.0 °F 27.5 °F 26.6 °F 80% 29.93 in 10.0 mi ESE 4.6 mph - N/A   Clear
12:55 AM 30.2 °F 26.7 °F 26.6 °F 86% 29.92 in 10.0 mi ESE 3.5 mph - N/A   Clear
1:15 AM 32.0 °F 27.5 °F 26.6 °F 80% 29.92 in 10.0 mi ESE 4.6 mph - N/A   Clear
1:35 AM 30.2 °F 25.4 °F 26.6 °F 86% 29.92 in 10.0 mi SE 4.6 mph - N/A   Clear
1:55 AM 30.2 °F 25.4 °F 26.6 °F 86% 29.92 in 10.0 mi SE 4.6 mph - N/A   Clear
2:15 AM 30.2 °F 24.3 °F 26.6 °F 86% 29.91 in 7.0 mi ESE 5.8 mph - N/A   Clear
2:35 AM 30.2 °F 24.3 °F 26.6 °F 86% 29.91 in 7.0 mi ESE 5.8 mph - N/A   Clear
2:55 AM 30.2 °F 25.4 °F 26.6 °F 86% 29.90 in 7.0 mi ESE 4.6 mph - N/A   Clear
3:15 AM 30.2 °F 25.4 °F 26.6 °F 86% 29.89 in 7.0 mi SE 4.6 mph - N/A   Clear
3:35 AM 30.2 °F 23.4 °F 26.6 °F 86% 29.89 in 7.0 mi SE 6.9 mph - N/A   Clear
3:55 AM 30.2 °F 23.4 °F 26.6 °F 86% 29.88 in 7.0 mi SE 6.9 mph - N/A   Clear
4:15 AM 30.2 °F 23.4 °F 26.6 °F 86% 29.88 in 7.0 mi SE 6.9 mph - N/A   Clear
4:30 AM 30.2 °F 24.3 °F 26.6 °F 86% 29.87 in 7.0 mi ESE 5.8 mph - N/A   Clear
4:55 AM 30.2 °F 23.4 °F 26.6 °F 86% 29.87 in 5.0 mi ESE 6.9 mph - N/A   Clear
5:15 AM 30.2 °F 23.4 °F 26.6 °F 86% 29.86 in 5.0 mi ESE 6.9 mph - N/A   Clear
5:35 AM 30.2 °F 25.4 °F 26.6 °F 86% 29.86 in 5.0 mi ESE 4.6 mph - N/A   Clear
5:55 AM 30.2 °F 24.3 °F 26.6 °F 86% 29.85 in 5.0 mi East 5.8 mph - N/A   Clear
6:10 AM 30.2 °F 25.4 °F 28.4 °F 93% 29.85 in 5.0 mi ESE 4.6 mph - N/A   Clear
6:35 AM 30.2 °F 24.3 °F 28.4 °F 93% 29.85 in 5.0 mi ESE 5.8 mph - N/A   Clear
6:55 AM 30.2 °F 24.3 °F 26.6 °F 86% 29.86 in 5.0 mi ESE 5.8 mph - N/A   Clear
7:15 AM 30.2 °F 23.4 °F 26.6 °F 86% 29.85 in 4.0 mi ESE 6.9 mph - N/A   Clear
7:35 AM 30.2 °F 23.4 °F 26.6 °F 86% 29.85 in 4.0 mi ESE 6.9 mph - N/A   Clear
7:55 AM 30.2 °F 26.7 °F 26.6 °F 86% 29.86 in 3.0 mi SE 3.5 mph - N/A   Scattered Clouds
8:15 AM 30.2 °F 25.4 °F 28.4 °F 93% 29.86 in 4.0 mi ESE 4.6 mph - N/A   Mostly Cloudy
8:35 AM 32.0 °F 25.6 °F 28.4 °F 87% 29.86 in 4.0 mi ESE 6.9 mph - N/A   Mostly Cloudy
8:55 AM 32.0 °F 24.8 °F 30.2 °F 93% 29.85 in 4.0 mi ESE 8.1 mph - N/A   Scattered Clouds
9:15 AM 32.0 °F 24.8 °F 30.2 °F 93% 29.84 in 4.0 mi ESE 8.1 mph - N/A   Scattered Clouds
9:35 AM 33.8 °F 25.8 °F 32.0 °F 93% 29.83 in 4.0 mi ESE 10.4 mph - N/A   Clear
9:55 AM 33.8 °F 25.3 °F 32.0 °F 93% 29.82 in 4.0 mi ESE 11.5 mph - N/A   Clear
10:15 AM 33.8 °F 26.4 °F 32.0 °F 93% 29.83 in 5.0 mi SE 9.2 mph - N/A   Scattered Clouds
10:35 AM 35.6 °F 29.2 °F 32.0 °F 87% 29.82 in 5.0 mi SE 8.1 mph - N/A   Haze
10:55 AM 35.6 °F 28.0 °F 32.0 °F 87% 29.81 in 5.0 mi SE 10.4 mph - N/A   Haze
11:15 AM 35.6 °F 29.2 °F 32.0 °F 87% 29.80 in 5.0 mi SE 8.1 mph - N/A   Haze
11:35 AM 35.6 °F 28.0 °F 32.0 °F 87% 29.80 in 5.0 mi ESE 10.4 mph - N/A   Haze
11:55 AM 37.4 °F 30.3 °F 32.0 °F 81% 29.78 in 5.0 mi ESE 10.4 mph - N/A   Haze
12:15 PM 37.4 °F 30.3 °F 32.0 °F 81% 29.77 in 7.0 mi ESE 10.4 mph - N/A   Mostly Cloudy
12:35 PM 37.4 °F 30.3 °F 32.0 °F 81% 29.77 in 7.0 mi ESE 10.4 mph - N/A   Mostly Cloudy
12:55 PM 39.2 °F 32.5 °F 32.0 °F 75% 29.77 in 10.0 mi ESE 10.4 mph - N/A   Overcast
1:15 PM 39.2 °F 33.0 °F 32.0 °F 75% 29.76 in 10.0 mi ESE 9.2 mph - N/A   Overcast
1:35 PM 39.2 °F 31.6 °F 32.0 °F 75% 29.75 in 7.0 mi ESE 12.7 mph - N/A   Overcast
1:55 PM 39.2 °F 32.5 °F 32.0 °F 75% 29.74 in 10.0 mi SE 10.4 mph 18.4 mph N/A   Scattered Clouds
2:15 PM 37.4 °F 29.3 °F 32.0 °F 81% 29.74 in 10.0 mi SE 12.7 mph - N/A   Mostly Cloudy
2:35 PM 37.4 °F 30.3 °F 32.0 °F 81% 29.73 in 10.0 mi SE 10.4 mph - N/A   Overcast
2:55 PM 37.4 °F 29.3 °F 32.0 °F 81% 29.72 in 7.0 mi SE 12.7 mph 17.3 mph N/A   Light Drizzle
3:15 PM 37.4 °F 28.9 °F 32.0 °F 81% 29.71 in 5.0 mi ESE 13.8 mph - N/A Rain Light Rain
3:30 PM 37.4 °F 30.3 °F 32.0 °F 81% 29.71 in 5.0 mi ESE 10.4 mph - N/A Rain Light Rain
3:55 PM 37.4 °F 29.8 °F 33.8 °F 87% 29.71 in 5.0 mi ESE 11.5 mph - N/A   Overcast
4:15 PM 37.4 °F 28.9 °F 32.0 °F 81% 29.70 in 7.0 mi ESE 13.8 mph - N/A   Overcast
4:35 PM 35.6 °F 27.1 °F 32.0 °F 87% 29.70 in 4.0 mi ESE 12.7 mph - N/A Rain Light Rain
4:55 PM 35.6 °F 28.6 °F 32.0 °F 87% 29.70 in 5.0 mi ESE 9.2 mph - N/A Snow Light Snow
5:15 PM 35.6 °F 28.0 °F 33.8 °F 93% 29.70 in 5.0 mi ESE 10.4 mph 16.1 mph N/A Snow Light Snow
5:35 PM 35.6 °F 28.0 °F 33.8 °F 93% 29.70 in 5.0 mi ESE 10.4 mph - N/A Snow Light Snow
5:55 PM 35.6 °F 28.0 °F 32.0 °F 87% 29.70 in 3.0 mi ESE 10.4 mph - N/A Snow Light Snow
6:15 PM 33.8 °F 25.8 °F 32.0 °F 93% 29.69 in 1.5 mi ESE 10.4 mph - 0.02 in Snow Light Snow
6:35 PM 33.8 °F 25.3 °F 32.0 °F 93% 29.69 in 3.0 mi ESE 11.5 mph - 0.02 in Snow Light Snow
6:55 PM 33.8 °F 24.3 °F 32.0 °F 93% 29.70 in 2.0 mi ESE 13.8 mph - 0.03 in Snow Light Snow
7:15 PM 33.8 °F 25.3 °F 32.0 °F 93% 29.70 in 1.5 mi ESE 11.5 mph - 0.01 in Snow Light Snow
7:35 PM 33.8 °F 24.8 °F 32.0 °F 93% 29.69 in 4.0 mi ESE 12.7 mph - 0.01 in Snow Light Snow
7:55 PM 33.8 °F 26.4 °F 32.0 °F 93% 29.70 in 4.0 mi ESE 9.2 mph - 0.01 in   Overcast
8:15 PM 33.8 °F 25.3 °F 32.0 °F 93% 29.69 in 4.0 mi ESE 11.5 mph - N/A   Overcast
8:35 PM 33.8 °F 25.8 °F 32.0 °F 93% 29.70 in 4.0 mi ESE 10.4 mph - N/A   Overcast
8:55 PM 33.8 °F 26.4 °F 32.0 °F 93% 29.70 in 4.0 mi ESE 9.2 mph - N/A   Overcast
9:15 PM 33.8 °F 24.8 °F 32.0 °F 93% 29.69 in 5.0 mi ESE 12.7 mph - N/A   Overcast
9:35 PM 33.8 °F 25.3 °F 32.0 °F 93% 29.70 in 5.0 mi ESE 11.5 mph 17.3 mph N/A   Overcast
9:50 PM 33.8 °F 25.3 °F 32.0 °F 93% 29.70 in 4.0 mi ESE 11.5 mph - N/A   Overcast
10:15 PM 33.8 °F 25.8 °F 32.0 °F 93% 29.70 in 2.5 mi ESE 10.4 mph 17.3 mph N/A Snow Light Snow
10:35 PM 33.8 °F 25.8 °F 32.0 °F 93% 29.69 in 2.0 mi ESE 10.4 mph - N/A Snow Light Snow
10:55 PM 33.8 °F 24.3 °F 32.0 °F 93% 29.68 in 2.0 mi ESE 13.8 mph - N/A   Overcast
11:15 PM 33.8 °F 24.3 °F 32.0 °F 93% 29.68 in 2.0 mi ESE 13.8 mph - N/A   Overcast
11:35 PM 33.8 °F 24.3 °F 32.0 °F 93% 29.68 in 1.8 mi ESE 13.8 mph 17.3 mph N/A Snow Light Snow
11:55 PM 33.8 °F 24.3 °F 32.0 °F 93% 29.68 in 2.0 mi ESE 13.8 mph 19.6 mph N/A   Overcast